Vorticity
7 18 16 18 15 12 18 15 25 50 31 10 9 16 16 11 5 6 6 4 1 0 6 9 47 28 9 13 18 30 -9 18 22 5 33 2 -6 15 9 3 6 6 5
-0 25 22 18 24 3 26 13 35 19 54 16 14 7 13 15 11 10 7 1 10 -18 -35 -0 0 13 16 12 15 12 21 8 14 11 -1 3 31 13 4 6 9 -6 3
13 16 21 23 32 21 35 33 30 17 14 35 27 10 4 11 14 7 9 13 9 12 4 16 8 8 -21 -3 19 2 5 18 9 -1 1 1 15 -1 17 7 38 -5 0
31 11 21 17 29 15 24 21 12 -7 28 12 36 44 13 -7 -1 -8 2 20 14 7 5 33 46 30 25 22 11 9 5 2 29 15 13 7 18 14 11 -0 -0 23 -12
13 17 15 10 29 28 17 13 1 5 -2 24 4 -5 6 41 1 -29 9 5 5 4 19 8 4 3 3 8 7 3 6 7 5 15 9 10 9 29 4 4 -1 11 -2
12 12 25 5 11 25 30 25 18 -8 31 -8 58 22 30 34 7 27 22 -7 15 -3 20 6 13 8 10 -1 -0 6 9 10 6 3 9 2 -6 49 36 -18 12 39 8
8 7 2 31 16 5 23 18 13 -16 -0 12 52 -4 -7 1 24 44 16 23 20 1 4 5 12 4 5 5 9 13 9 6 12 15 7 -12 -15 3 -6 -8 37 18 -1
7 11 5 5 23 19 15 22 3 16 17 22 7 61 35 23 31 7 37 2 -2 4 -1 9 7 6 3 7 10 11 14 8 7 12 21 8 -3 7 5 29 6 3 3
8 10 8 8 7 12 27 18 8 7 -1 7 13 -0 -2 56 21 -12 11 2 15 2 13 8 12 7 13 13 11 10 9 12 9 6 9 11 21 8 13 -4 12 9 5
11 10 9 7 7 7 2 27 29 23 16 12 15 28 10 1 28 18 11 17 -21 6 1 -0 22 14 12 7 10 11 12 12 19 12 19 13 14 16 16 -1 -7 14 15
11 10 9 11 9 7 9 7 -2 5 16 19 17 26 6 11 5 22 65 41 40 14 12 12 9 1 6 3 7 7 7 6 7 12 12 16 27 22 14 12 7 14 18
12 13 13 10 10 11 10 8 7 8 7 4 6 3 15 16 15 13 13 7 24 10 19 6 7 11 8 8 3 5 9 6 8 2 6 3 -0 7 30 29 6 6 -2
9 9 11 14 13 10 10 9 8 8 9 10 9 9 3 1 6 16 19 13 9 18 10 -0 7 6 5 4 8 5 4 5 3 3 10 5 2 5 -6 18 27 23 22
10 10 8 8 9 8 8 7 6 5 6 7 8 10 8 9 7 3 6 8 16 19 21 19 1 6 17 -7 19 11 3 8 4 1 2 8 5 3 2 11 -8 30 25
9 4 6 11 11 15 17 19 20 14 9 6 5 6 7 11 9 10 8 7 6 3 6 20 14 11 8 12 6 9 6 1 4 1 5 2 5 10 11 5 4 -1 10
8 6 4 8 6 5 5 7 9 15 19 22 24 12 3 3 5 9 16 15 3 5 3 2 6 9 12 13 15 18 13 8 8 1 4 7 4 5 3 3 13 6 -0
7 7 11 3 3 3 3 3 2 6 5 4 18 20 31 30 12 6 5 8 13 14 8 12 14 5 3 0 0 4 6 14 16 17 18 12 15 8 8 9 2 7 9
15 12 7 7 8 4 3 1 2 5 3 7 6 11 23 17 20 31 36 26 14 5 7 8 13 12 8 3 11 12 6 2 -0 1 2 4 3 6 9 7 8 5 2
3 4 8 15 13 12 9 5 2 2 5 4 3 6 4 12 30 19 9 16 26 33 30 16 9 6 12 17 15 18 14 15 11 7 3 -1 -0 -2 2 4 6 7 4
9 6 5 3 3 5 6 9 11 7 5 0 -0 4 6 5 6 18 26 11 9 9 17 33 34 23 14 14 17 16 20 25 31 28 27 22 12 4 -0 1 1 -3 3
9 10 15 18 12 9 6 3 4 5 2 2 5 5 4 6 3 8 8 23 17 12 4 16 31 34 28 21 15 16 11 19 18 19 23 15 23 40 41 34 1 1 2
10 12 11 8 7 10 14 14 12 10 9 7 5 8 6 6 7 2 9 9 21 19 11 6 26 23 27 16 15 6 12 21 15 17 8 13 23 10 14 24 41 48 25
16 15 12 10 11 11 8 8 9 12 13 12 9 11 9 5 7 8 3 12 7 18 19 8 12 17 21 25 22 15 10 17 16 13 13 10 20 16 13 13 11 19 31
24 18 15 16 19 18 17 15 13 12 11 10 11 10 8 9 4 5 6 4 11 7 17 16 14 13 19 15 25 29 21 13 15 19 12 15 12 12 24 10 10 14 10
27 31 32 33 29 18 12 15 17 16 14 13 13 14 12 8 8 8 5 5 8 8 10 17 17 18 16 16 16 16 25 29 18 18 8 17 16 16 17 15 10 14 12
22 23 24 28 24 28 35 27 15 12 14 17 15 14 14 15 15 14 11 11 9 9 10 14 15 16 13 14 14 19 27 29 28 30 33 21 26 40 25 21 15 1 18
Height
5555 5549 5544 5540 5537 5536 5536 5536 5538 5543 5554 5565 5574 5582 5589 5596 5604 5612 5618 5622 5626 5629 5634 5640 5644 5647 5649 5652 5653 5654 5658 5658 5660 5665 5667 5673 5678 5682 5686 5689 5692 5695 5696
5546 5540 5534 5530 5527 5524 5522 5522 5522 5526 5532 5544 5555 5564 5573 5581 5590 5596 5604 5609 5614 5619 5619 5623 5629 5632 5635 5637 5641 5645 5646 5649 5649 5655 5657 5663 5667 5672 5675 5677 5681 5685 5686
5539 5531 5525 5520 5516 5512 5510 5510 5512 5517 5520 5526 5535 5547 5559 5568 5574 5581 5588 5598 5602 5605 5609 5613 5618 5621 5624 5628 5631 5634 5635 5638 5639 5643 5647 5651 5656 5660 5663 5667 5667 5674 5676
5532 5524 5517 5512 5508 5504 5503 5504 5506 5510 5512 5516 5524 5534 5547 5558 5561 5569 5577 5582 5589 5592 5597 5602 5604 5608 5612 5618 5620 5623 5624 5626 5629 5632 5637 5640 5643 5649 5652 5655 5659 5662 5660
5527 5519 5512 5507 5503 5499 5498 5500 5502 5503 5504 5507 5512 5520 5533 5541 5542 5557 5564 5570 5574 5581 5588 5592 5595 5598 5601 5606 5607 5610 5614 5616 5621 5621 5624 5628 5633 5638 5643 5647 5647 5651 5654
5522 5516 5510 5504 5500 5495 5494 5495 5496 5499 5500 5501 5506 5511 5522 5532 5533 5536 5552 5557 5565 5572 5577 5582 5585 5588 5591 5593 5595 5599 5603 5606 5610 5612 5614 5617 5620 5623 5628 5629 5630 5637 5643
5518 5512 5507 5503 5499 5496 5493 5492 5494 5495 5496 5498 5499 5504 5512 5518 5526 5527 5539 5546 5553 5558 5565 5570 5574 5578 5579 5583 5586 5590 5592 5594 5597 5599 5601 5605 5610 5612 5615 5618 5622 5625 5629
5516 5511 5506 5500 5497 5493 5492 5491 5490 5490 5492 5493 5495 5496 5499 5503 5511 5520 5528 5532 5540 5546 5552 5557 5562 5566 5568 5571 5574 5578 5581 5581 5583 5587 5589 5595 5597 5599 5606 5607 5609 5613 5616
5513 5509 5505 5501 5496 5492 5490 5487 5487 5488 5489 5490 5491 5492 5493 5495 5503 5510 5517 5522 5528 5534 5540 5545 5550 5554 5557 5561 5564 5567 5568 5571 5573 5574 5576 5580 5582 5587 5591 5593 5597 5600 5605
5511 5506 5503 5499 5496 5493 5490 5487 5486 5486 5484 5486 5487 5489 5491 5494 5495 5501 5504 5510 5516 5522 5529 5533 5538 5543 5547 5550 5552 5554 5558 5560 5562 5564 5565 5567 5568 5571 5576 5582 5583 5587 5591
5508 5504 5500 5496 5493 5491 5489 5488 5486 5484 5483 5482 5482 5483 5485 5486 5491 5493 5496 5502 5507 5512 5517 5522 5526 5530 5534 5537 5541 5544 5547 5550 5551 5553 5555 5555 5556 5558 5560 5565 5571 5571 5576
5505 5501 5497 5494 5491 5488 5486 5484 5483 5483 5482 5482 5481 5481 5481 5482 5484 5486 5490 5492 5496 5501 5505 5509 5514 5518 5521 5525 5528 5532 5535 5539 5541 5543 5545 5547 5547 5548 5549 5550 5554 5559 5561
5501 5497 5494 5491 5489 5486 5484 5482 5480 5479 5479 5479 5477 5476 5477 5478 5478 5478 5480 5483 5488 5491 5494 5498 5502 5505 5509 5512 5516 5519 5523 5525 5528 5531 5533 5535 5537 5538 5538 5540 5541 5544 5546
5496 5493 5490 5487 5484 5482 5480 5478 5476 5475 5474 5473 5472 5471 5471 5472 5473 5474 5475 5476 5478 5479 5481 5484 5488 5492 5496 5498 5500 5503 5507 5511 5515 5518 5521 5523 5524 5525 5526 5528 5530 5532 5532
5489 5487 5484 5480 5477 5475 5473 5471 5470 5469 5468 5466 5465 5465 5464 5463 5462 5462 5464 5466 5467 5468 5469 5471 5474 5478 5481 5483 5486 5489 5492 5495 5499 5503 5507 5510 5511 5512 5513 5515 5517 5519 5519
5482 5479 5476 5474 5471 5469 5466 5464 5462 5460 5458 5457 5456 5456 5455 5454 5453 5451 5451 5451 5453 5454 5456 5458 5460 5463 5466 5469 5471 5474 5476 5480 5482 5486 5490 5493 5496 5498 5500 5502 5504 5506 5506
5473 5470 5468 5465 5463 5460 5458 5456 5453 5451 5449 5447 5445 5443 5442 5441 5440 5440 5440 5440 5441 5440 5441 5442 5443 5446 5448 5451 5453 5456 5458 5461 5465 5468 5471 5474 5478 5483 5485 5487 5489 5491 5494
5463 5460 5457 5454 5452 5449 5447 5445 5443 5441 5439 5437 5434 5432 5430 5428 5427 5425 5424 5423 5423 5424 5425 5426 5427 5427 5429 5432 5434 5437 5439 5443 5446 5449 5453 5457 5461 5465 5469 5471 5474 5477 5480
5451 5448 5445 5442 5439 5436 5434 5433 5431 5429 5427 5425 5423 5421 5419 5417 5415 5413 5411 5409 5407 5405 5404 5404 5406 5408 5410 5412 5414 5416 5418 5421 5425 5428 5432 5436 5441 5445 5450 5453 5456 5460 5463
5436 5432 5430 5427 5425 5422 5420 5418 5416 5414 5413 5412 5410 5407 5405 5402 5400 5397 5395 5394 5393 5392 5390 5388 5387 5388 5390 5392 5394 5396 5397 5398 5401 5404 5408 5411 5416 5421 5427 5432 5436 5441 5445
5420 5415 5412 5409 5406 5404 5403 5402 5400 5399 5397 5396 5395 5394 5392 5390 5387 5385 5382 5379 5377 5376 5375 5372 5370 5370 5371 5372 5375 5377 5379 5380 5381 5384 5387 5390 5392 5396 5400 5406 5412 5418 5424
5402 5397 5394 5391 5388 5385 5383 5382 5382 5381 5380 5379 5379 5378 5377 5376 5375 5373 5370 5368 5365 5362 5360 5358 5356 5354 5354 5356 5357 5360 5361 5362 5364 5366 5368 5370 5373 5377 5380 5383 5387 5393 5399
5379 5375 5372 5369 5367 5365 5364 5363 5363 5362 5362 5362 5362 5362 5362 5361 5361 5360 5358 5355 5353 5350 5347 5346 5344 5341 5340 5341 5341 5341 5343 5344 5345 5348 5350 5353 5355 5358 5362 5365 5370 5373 5377
5354 5350 5347 5345 5344 5343 5342 5342 5342 5343 5343 5344 5344 5345 5345 5345 5346 5345 5344 5343 5341 5338 5336 5333 5331 5329 5327 5326 5324 5324 5324 5326 5327 5329 5332 5334 5337 5340 5344 5348 5353 5357 5361
5334 5329 5325 5322 5321 5320 5320 5321 5321 5323 5324 5325 5325 5327 5328 5329 5330 5330 5330 5329 5328 5326 5324 5322 5320 5318 5316 5313 5311 5310 5308 5308 5309 5311 5312 5314 5317 5321 5325 5331 5336 5340 5343
5321 5315 5310 5306 5303 5300 5299 5300 5301 5303 5305 5306 5308 5309 5311 5312 5313 5314 5315 5315 5314 5314 5312 5310 5309 5307 5305 5303 5300 5297 5294 5293 5292 5293 5294 5296 5299 5303 5309 5315 5320 5326 5330